| time (UTC) | temp F | wind direction | speed MPH | gust MPH | rain 1hr in | rain 24hr in | rain mn in | humidity % | barometer mb |
| 20260505125003 | 65 | 140 | 4.0 | 9.0 | 0.00 | 0.00 | 0.00 | 71 | 1011.9 |
| 20260505124503 | 65 | 147 | 3.0 | 9.0 | 0.00 | 0.00 | 0.00 | 71 | 1011.9 |
| 20260505124003 | 65 | 140 | 2.0 | 6.0 | 0.00 | 0.00 | 0.00 | 71 | 1012.0 |
| 20260505123503 | 65 | 136 | 2.0 | 7.0 | 0.00 | 0.00 | 0.00 | 71 | 1012.0 |
| 20260505123003 | 65 | 139 | 3.0 | 7.0 | 0.00 | 0.00 | 0.00 | 71 | 1012.2 |
| 20260505122503 | 65 | 145 | 3.0 | 8.0 | 0.00 | 0.00 | 0.00 | 71 | 1012.2 |
| 20260505122003 | 65 | 148 | 4.0 | 9.0 | 0.00 | 0.00 | 0.00 | 71 | 1012.2 |
| 20260505121503 | 66 | 152 | 3.0 | 7.0 | 0.00 | 0.00 | 0.00 | 71 | 1012.3 |
| 20260505121003 | 66 | 142 | 4.0 | 11.0 | 0.00 | 0.00 | 0.00 | 71 | 1012.2 |
| 20260505120503 | 66 | 128 | 3.0 | 9.0 | 0.00 | 0.00 | 0.00 | 71 | 1012.2 |
| 20260505120004 | 66 | 144 | 3.0 | 10.0 | 0.00 | 0.00 | 0.00 | 71 | 1012.2 |
| 20260505115503 | 66 | 149 | 2.0 | 8.0 | 0.00 | 0.00 | 0.00 | 71 | 1012.2 |
| 20260505115003 | 66 | 147 | 2.0 | 9.0 | 0.00 | 0.00 | 0.00 | 71 | 1012.2 |
| 20260505114503 | 66 | 143 | 4.0 | 9.0 | 0.00 | 0.00 | 0.00 | 71 | 1012.1 |
| 20260505114003 | 66 | 160 | 5.0 | 11.0 | 0.00 | 0.00 | 0.00 | 71 | 1012.0 |
| 20260505113503 | 67 | 148 | 4.0 | 9.0 | 0.00 | 0.00 | 0.00 | 71 | 1012.2 |
| 20260505113003 | 67 | 160 | 4.0 | 8.0 | 0.00 | 0.00 | 0.00 | 71 | 1012.1 |
| 20260505112503 | 67 | 146 | 5.0 | 13.0 | 0.00 | 0.00 | 0.00 | 71 | 1012.0 |
| 20260505112003 | 67 | 141 | 4.0 | 10.0 | 0.00 | 0.00 | 0.00 | 71 | 1012.0 |
| 20260505111503 | 67 | 138 | 3.0 | 8.0 | 0.00 | 0.00 | 0.00 | 71 | 1012.0 |
| 20260505111003 | 67 | 129 | 2.0 | 8.0 | 0.00 | 0.00 | 0.00 | 71 | 1012.0 |
| 20260505110503 | 67 | 163 | 2.0 | 5.0 | 0.00 | 0.00 | 0.00 | 71 | 1012.1 |
| 20260505102003 | 68 | 138 | 5.0 | 11.0 | 0.00 | 0.00 | 0.00 | 70 | 1011.9 |
| 20260505101503 | 68 | 132 | 5.0 | 14.0 | 0.00 | 0.00 | 0.00 | 70 | 1011.9 |
| 20260505101003 | 67 | 87 | 4.0 | 12.0 | 0.00 | 0.00 | 0.00 | 71 | 1011.9 |
| 20260505100503 | 67 | 142 | 5.0 | 13.0 | 0.00 | 0.00 | 0.00 | 71 | 1011.9 |
| 20260505100003 | 67 | 137 | 3.0 | 10.0 | 0.00 | 0.00 | 0.00 | 71 | 1012.1 |
| 20260505095503 | 66 | 121 | 5.0 | 13.0 | 0.00 | 0.00 | 0.00 | 71 | 1012.1 |
| 20260505095003 | 66 | 142 | 5.0 | 12.0 | 0.00 | 0.00 | 0.00 | 71 | 1012.2 |
| 20260505094503 | 66 | 143 | 5.0 | 16.0 | 0.00 | 0.00 | 0.00 | 71 | 1012.2 |
| 20260505094003 | 66 | 145 | 6.0 | 15.0 | 0.00 | 0.00 | 0.00 | 70 | 1012.2 |
| 20260505093503 | 67 | 134 | 5.0 | 14.0 | 0.00 | 0.00 | 0.00 | 70 | 1012.1 |
| 20260505093003 | 67 | 130 | 5.0 | 13.0 | 0.00 | 0.00 | 0.00 | 70 | 1012.0 |
| 20260505092503 | 67 | 142 | 4.0 | 10.0 | 0.00 | 0.00 | 0.00 | 70 | 1012.2 |
| 20260505092003 | 68 | 137 | 4.0 | 12.0 | 0.00 | 0.00 | 0.00 | 70 | 1012.2 |
| 20260505091503 | 67 | 129 | 4.0 | 13.0 | 0.00 | 0.00 | 0.00 | 70 | 1012.2 |
| 20260505091003 | 67 | 139 | 5.0 | 15.0 | 0.00 | 0.00 | 0.00 | 70 | 1012.0 |
| 20260505090503 | 67 | 153 | 4.0 | 12.0 | 0.00 | 0.00 | 0.00 | 70 | 1012.2 |
| 20260505090003 | 67 | 133 | 4.0 | 11.0 | 0.00 | 0.00 | 0.00 | 70 | 1012.2 |
| 20260505085503 | 67 | 137 | 5.0 | 10.0 | 0.00 | 0.00 | 0.00 | 70 | 1012.1 |
| 20260505085003 | 67 | 121 | 6.0 | 12.0 | 0.00 | 0.00 | 0.00 | 70 | 1012.2 |
| 20260505084503 | 67 | 123 | 4.0 | 11.0 | 0.00 | 0.00 | 0.00 | 70 | 1012.2 |
| 20260505084003 | 67 | 149 | 5.0 | 13.0 | 0.00 | 0.00 | 0.00 | 70 | 1012.3 |
| 20260505083503 | 67 | 140 | 4.0 | 10.0 | 0.00 | 0.00 | 0.00 | 70 | 1012.2 |
| 20260505083003 | 67 | 135 | 4.0 | 10.0 | 0.00 | 0.00 | 0.00 | 70 | 1012.2 |
| 20260505082503 | 67 | 114 | 4.0 | 9.0 | 0.00 | 0.00 | 0.00 | 70 | 1012.2 |
| 20260505082003 | 67 | 139 | 3.0 | 7.0 | 0.00 | 0.00 | 0.00 | 70 | 1012.2 |
| 20260505081503 | 67 | 117 | 2.0 | 7.0 | 0.00 | 0.00 | 0.00 | 71 | 1012.2 |
| 20260505081003 | 66 | 135 | 3.0 | 8.0 | 0.00 | 0.00 | 0.00 | 71 | 1012.2 |
| 20260505080503 | 66 | 128 | 4.0 | 11.0 | 0.00 | 0.00 | 0.00 | 71 | 1012.3 |
| 20260505080003 | 66 | 134 | 3.0 | 10.0 | 0.00 | 0.00 | 0.00 | 71 | 1012.3 |
| 20260505075503 | 66 | 137 | 4.0 | 12.0 | 0.00 | 0.00 | 0.00 | 71 | 1012.5 |
| 20260505075003 | 66 | 132 | 3.0 | 8.0 | 0.00 | 0.00 | 0.00 | 71 | 1012.4 |
| 20260505074503 | 66 | 110 | 3.0 | 12.0 | 0.00 | 0.00 | 0.00 | 71 | 1012.4 |
| 20260505074003 | 66 | 138 | 3.0 | 10.0 | 0.00 | 0.00 | 0.00 | 71 | 1012.3 |
| 20260505073503 | 65 | 127 | 3.0 | 8.0 | 0.00 | 0.00 | 0.00 | 71 | 1012.4 |
| 20260505073003 | 65 | 139 | 3.0 | 10.0 | 0.00 | 0.00 | 0.00 | 71 | 1012.3 |
| 20260505072503 | 65 | 141 | 5.0 | 11.0 | 0.00 | 0.00 | 0.00 | 71 | 1012.4 |
| 20260505072003 | 65 | 146 | 3.0 | 8.0 | 0.00 | 0.00 | 0.00 | 71 | 1012.3 |
| 20260505071503 | 65 | 134 | 3.0 | 10.0 | 0.00 | 0.00 | 0.00 | 71 | 1012.5 |
| 20260505071003 | 65 | 123 | 3.0 | 7.0 | 0.00 | 0.00 | 0.00 | 71 | 1012.5 |
| 20260505070503 | 65 | 141 | 3.0 | 8.0 | 0.00 | 0.00 | 0.00 | 71 | 1012.6 |
| 20260505070003 | 65 | 137 | 2.0 | 6.0 | 0.00 | 0.00 | 0.00 | 71 | 1012.8 |
| 20260505065503 | 64 | 132 | 3.0 | 11.0 | 0.00 | 0.00 | 0.00 | 71 | 1012.7 |
| 20260505065003 | 64 | 143 | 3.0 | 8.0 | 0.00 | 0.00 | 0.00 | 71 | 1012.8 |
| 20260505064503 | 64 | 126 | 3.0 | 8.0 | 0.00 | 0.00 | 0.00 | 71 | 1012.7 |
| 20260505064003 | 64 | 135 | 4.0 | 8.0 | 0.00 | 0.00 | 0.00 | 71 | 1012.6 |
| 20260505063503 | 64 | 100 | 2.0 | 6.0 | 0.00 | 0.00 | 0.00 | 71 | 1012.5 |
| 20260505063003 | 64 | 118 | 3.0 | 10.0 | 0.00 | 0.00 | 0.00 | 71 | 1012.4 |
| 20260505062503 | 64 | 119 | 3.0 | 10.0 | 0.00 | 0.00 | 0.00 | 71 | 1012.3 |
| 20260505062003 | 64 | 121 | 2.0 | 9.0 | 0.00 | 0.00 | 0.00 | 71 | 1012.3 |
| 20260505061503 | 64 | 130 | 3.0 | 8.0 | 0.00 | 0.00 | 0.00 | 71 | 1012.2 |
| 20260505061003 | 64 | 120 | 2.0 | 6.0 | 0.00 | 0.00 | 0.00 | 71 | 1012.0 |
| 20260505060503 | 64 | 90 | 3.0 | 10.0 | 0.00 | 0.00 | 0.00 | 71 | 1012.1 |
| 20260505060003 | 64 | 95 | 2.0 | 7.0 | 0.00 | 0.00 | 0.00 | 71 | 1012.2 |
| 20260505055503 | 64 | 105 | 2.0 | 6.0 | 0.00 | 0.00 | 0.00 | 71 | 1012.2 |
| 20260505055003 | 64 | 67 | 2.0 | 6.0 | 0.00 | 0.00 | 0.00 | 71 | 1012.2 |
| 20260505054003 | 62 | 45 | 2.0 | 4.0 | 0.00 | 0.00 | 0.00 | 71 | 1012.1 |
| 20260505053503 | 61 | 32 | 2.0 | 4.0 | 0.00 | 0.00 | 0.00 | 71 | 1012.1 |
| 20260505053003 | 61 | 41 | 2.0 | 4.0 | 0.00 | 0.00 | 0.00 | 72 | 1012.1 |
| 20260505052503 | 60 | 26 | 2.0 | 4.0 | 0.00 | 0.00 | 0.00 | 72 | 1012.2 |
| 20260505052003 | 60 | 22 | 2.0 | 5.0 | 0.00 | 0.00 | 0.00 | 72 | 1012.2 |
| 20260505051503 | 60 | 28 | 3.0 | 8.0 | 0.00 | 0.00 | 0.00 | 72 | 1012.1 |
| 20260505051003 | 59 | 42 | 3.0 | 7.0 | 0.00 | 0.00 | 0.00 | 72 | 1012.1 |
| 20260505050503 | 58 | 45 | 2.0 | 3.0 | 0.00 | 0.00 | 0.00 | 72 | 1012.1 |
| 20260505041503 | 55 | 5 | 2.0 | 4.0 | 0.00 | 0.00 | 0.00 | 72 | 1012.1 |
| 20260505041003 | 55 | 22 | 3.0 | 4.0 | 0.00 | 0.00 | 0.00 | 72 | 1012.0 |
| 20260505040503 | 55 | 22 | 2.0 | 4.0 | 0.00 | 0.00 | 0.00 | 72 | 1011.9 |
| 20260505040004 | 55 | 22 | 2.0 | 4.0 | 0.00 | 0.00 | 0.00 | 72 | 1012.0 |
| 20260505035503 | 56 | 22 | 2.0 | 4.0 | 0.00 | 0.00 | 0.00 | 72 | 1011.9 |
| 20260505035003 | 56 | 22 | 2.0 | 4.0 | 0.00 | 0.00 | 0.00 | 73 | 1011.8 |
| 20260505034503 | 56 | 22 | 2.0 | 4.0 | 0.00 | 0.00 | 0.00 | 73 | 1011.9 |
| 20260505034003 | 56 | 22 | 2.0 | 4.0 | 0.00 | 0.00 | 0.00 | 73 | 1011.9 |
| 20260505033503 | 56 | 34 | 2.0 | 4.0 | 0.00 | 0.00 | 0.00 | 73 | 1012.0 |
| 20260505033003 | 56 | 45 | 1.0 | 2.0 | 0.00 | 0.00 | 0.00 | 73 | 1012.1 |
| 20260505032503 | 56 | 45 | 1.0 | 3.0 | 0.00 | 0.00 | 0.00 | 73 | 1012.1 |
| 20260505032003 | 56 | 45 | 2.0 | 4.0 | 0.00 | 0.00 | 0.00 | 73 | 1012.1 |
| 20260505031503 | 56 | 45 | 1.0 | 2.0 | 0.00 | 0.00 | 0.00 | 73 | 1012.0 |
| 20260505031003 | 56 | 22 | 1.0 | 2.0 | 0.00 | 0.00 | 0.00 | 73 | 1012.0 |
| 20260505030503 | 56 | 22 | 2.0 | 3.0 | 0.00 | 0.00 | 0.00 | 73 | 1012.2 |
| 20260505030003 | 57 | 22 | 1.0 | 2.0 | 0.00 | 0.00 | 0.00 | 73 | 1012.2 |
| 20260505025503 | 57 | 22 | 1.0 | 3.0 | 0.00 | 0.00 | 0.00 | 73 | 1012.2 |
| 20260505025003 | 57 | 27 | 0.0 | 2.0 | 0.00 | 0.00 | 0.00 | 72 | 1012.3 |
| 20260505024503 | 57 | 45 | 1.0 | 2.0 | 0.00 | 0.00 | 0.00 | 72 | 1012.2 |
| 20260505024003 | 57 | 45 | 1.0 | 2.0 | 0.00 | 0.00 | 0.00 | 72 | 1012.1 |
| 20260505023503 | 57 | 45 | 0.0 | 1.0 | 0.00 | 0.00 | 0.00 | 72 | 1012.0 |
| 20260505023003 | 57 | 45 | 1.0 | 3.0 | 0.00 | 0.00 | 0.00 | 72 | 1012.2 |
| 20260505022503 | 58 | 45 | 1.0 | 2.0 | 0.00 | 0.00 | 0.00 | 72 | 1012.0 |
| 20260505022003 | 58 | 47 | 2.0 | 3.0 | 0.00 | 0.00 | 0.00 | 72 | 1012.1 |
| 20260505021503 | 58 | 54 | 2.0 | 4.0 | 0.00 | 0.00 | 0.00 | 72 | 1012.0 |
| 20260505021003 | 58 | 56 | 1.0 | 4.0 | 0.00 | 0.00 | 0.00 | 72 | 1011.9 |
| 20260505020503 | 58 | 54 | 1.0 | 2.0 | 0.00 | 0.00 | 0.00 | 72 | 1011.9 |
| 20260505020003 | 58 | 61 | 1.0 | 4.0 | 0.00 | 0.00 | 0.00 | 72 | 1011.9 |
| 20260505015503 | 58 | 52 | 2.0 | 4.0 | 0.00 | 0.00 | 0.00 | 72 | 1011.9 |
| 20260505015003 | 58 | 59 | 3.0 | 6.0 | 0.00 | 0.00 | 0.00 | 72 | 1011.9 |
| 20260505014503 | 58 | 57 | 2.0 | 4.0 | 0.00 | 0.00 | 0.00 | 72 | 1011.9 |
| 20260505014003 | 58 | 57 | 2.0 | 4.0 | 0.00 | 0.00 | 0.00 | 72 | 1012.0 |
| 20260505013503 | 58 | 64 | 2.0 | 5.0 | 0.00 | 0.00 | 0.00 | 72 | 1012.0 |
| 20260505013003 | 59 | 55 | 3.0 | 4.0 | 0.00 | 0.00 | 0.00 | 72 | 1011.9 |
| 20260505012503 | 59 | 62 | 2.0 | 4.0 | 0.00 | 0.00 | 0.00 | 72 | 1012.0 |
| 20260505012003 | 59 | 67 | 1.0 | 4.0 | 0.00 | 0.00 | 0.00 | 72 | 1012.1 |
| 20260505011507 | 59 | 71 | 1.0 | 3.0 | 0.00 | 0.00 | 0.00 | 72 | 1012.1 |
| 20260505011003 | 59 | 62 | 1.0 | 4.0 | 0.00 | 0.00 | 0.00 | 72 | 1012.1 |
| 20260505010503 | 59 | 68 | 2.0 | 4.0 | 0.00 | 0.00 | 0.00 | 72 | 1012.1 |
| 20260505010003 | 59 | 72 | 2.0 | 4.0 | 0.00 | 0.00 | 0.00 | 72 | 1012.2 |
| 20260505005503 | 59 | 67 | 0.0 | 3.0 | 0.00 | 0.00 | 0.00 | 72 | 1012.1 |
| 20260505005004 | 59 | 58 | 2.0 | 4.0 | 0.00 | 0.00 | 0.00 | 72 | 1012.0 |
| 20260505004503 | 59 | 67 | 1.0 | 3.0 | 0.00 | 0.00 | 0.00 | 72 | 1012.0 |
| 20260505004003 | 59 | 71 | 0.0 | 2.0 | 0.00 | 0.00 | 0.00 | 72 | 1012.0 |
| 20260505003503 | 59 | 60 | 1.0 | 2.0 | 0.00 | 0.00 | 0.00 | 72 | 1011.9 |
| 20260505003003 | 59 | 75 | 0.0 | 2.0 | 0.00 | 0.00 | 0.00 | 72 | 1012.0 |
| 20260505002503 | 59 | 62 | 2.0 | 4.0 | 0.00 | 0.00 | 0.00 | 72 | 1012.0 |
| 20260505002003 | 58 | 61 | 1.0 | 4.0 | 0.00 | 0.00 | 0.00 | 72 | 1012.1 |
| 20260505001503 | 58 | 58 | 0.0 | 2.0 | 0.00 | 0.00 | 0.00 | 72 | 1012.1 |
| 20260505001003 | 58 | 54 | 0.0 | 2.0 | 0.00 | 0.00 | 0.00 | 72 | 1012.1 |
| 20260505000503 | 58 | 45 | 1.0 | 2.0 | 0.00 | 0.00 | 0.00 | 72 | 1012.2 |
| 20260505000003 | 58 | 112 | 0.0 | 1.0 | 0.00 | 0.00 | 0.00 | 72 | 1012.2 |
| 20260504235503 | 58 | 127 | 1.0 | 3.0 | 0.00 | 0.00 | 0.00 | 72 | 1012.2 |
| 20260504235003 | 58 | 0 | 0.0 | 0.0 | 0.00 | 0.00 | 0.00 | 72 | 1012.3 |
| 20260504234503 | 58 | 0 | 0.0 | 0.0 | 0.00 | 0.00 | 0.00 | 72 | 1012.4 |
| 20260504234003 | 58 | 22 | 0.0 | 1.0 | 0.00 | 0.00 | 0.00 | 72 | 1012.5 |
| 20260504233503 | 58 | 22 | 2.0 | 3.0 | 0.00 | 0.00 | 0.00 | 72 | 1012.4 |
| 20260504233003 | 58 | 22 | 2.0 | 3.0 | 0.00 | 0.00 | 0.00 | 72 | 1012.6 |
| 20260504232503 | 59 | 22 | 2.0 | 3.0 | 0.00 | 0.00 | 0.00 | 72 | 1012.5 |
| 20260504232003 | 59 | 22 | 1.0 | 4.0 | 0.00 | 0.00 | 0.00 | 72 | 1012.6 |
| 20260504231503 | 59 | 22 | 2.0 | 4.0 | 0.00 | 0.00 | 0.00 | 72 | 1012.5 |
| 20260504231003 | 59 | 22 | 3.0 | 5.0 | 0.00 | 0.00 | 0.00 | 72 | 1012.7 |
| 20260504230503 | 59 | 23 | 3.0 | 5.0 | 0.00 | 0.00 | 0.00 | 72 | 1012.7 |
| 20260504230003 | 59 | 26 | 3.0 | 5.0 | 0.00 | 0.00 | 0.00 | 72 | 1012.6 |
| 20260504225503 | 59 | 22 | 2.0 | 3.0 | 0.00 | 0.00 | 0.00 | 72 | 1012.7 |
| 20260504225003 | 59 | 22 | 2.0 | 4.0 | 0.00 | 0.00 | 0.00 | 72 | 1012.9 |
| 20260504224503 | 59 | 22 | 2.0 | 4.0 | 0.00 | 0.00 | 0.00 | 72 | 1012.9 |
| 20260504224003 | 59 | 22 | 2.0 | 4.0 | 0.00 | 0.00 | 0.00 | 72 | 1012.9 |
| 20260504223503 | 59 | 22 | 2.0 | 3.0 | 0.00 | 0.00 | 0.00 | 72 | 1013.0 |
| 20260504223003 | 59 | 35 | 2.0 | 3.0 | 0.00 | 0.00 | 0.00 | 72 | 1013.1 |
| 20260504222503 | 59 | 30 | 3.0 | 6.0 | 0.00 | 0.00 | 0.00 | 72 | 1013.1 |
| 20260504222003 | 59 | 27 | 4.0 | 7.0 | 0.00 | 0.00 | 0.00 | 72 | 1013.1 |
| 20260504221503 | 59 | 22 | 3.0 | 6.0 | 0.00 | 0.00 | 0.00 | 72 | 1013.2 |
| 20260504221003 | 59 | 22 | 2.0 | 3.0 | 0.00 | 0.00 | 0.00 | 72 | 1013.0 |
| 20260504220503 | 59 | 22 | 2.0 | 4.0 | 0.00 | 0.00 | 0.00 | 72 | 1013.1 |
| 20260504220003 | 60 | 22 | 2.0 | 4.0 | 0.00 | 0.00 | 0.00 | 72 | 1013.2 |
| 20260504215503 | 60 | 22 | 1.0 | 2.0 | 0.00 | 0.00 | 0.00 | 72 | 1013.2 |
| 20260504215003 | 60 | 22 | 1.0 | 3.0 | 0.00 | 0.00 | 0.00 | 72 | 1013.2 |
| 20260504214503 | 60 | 22 | 1.0 | 2.0 | 0.00 | 0.00 | 0.00 | 71 | 1013.1 |
| 20260504214003 | 60 | 22 | 0.0 | 2.0 | 0.00 | 0.00 | 0.00 | 71 | 1013.2 |
| 20260504213503 | 60 | 25 | 2.0 | 3.0 | 0.00 | 0.00 | 0.00 | 71 | 1013.3 |
| 20260504213003 | 61 | 45 | 1.0 | 2.0 | 0.00 | 0.00 | 0.00 | 71 | 1013.2 |
| 20260504212503 | 61 | 45 | 1.0 | 2.0 | 0.00 | 0.00 | 0.00 | 71 | 1013.2 |
| 20260504212003 | 61 | 45 | 0.0 | 2.0 | 0.00 | 0.00 | 0.00 | 71 | 1013.2 |
| 20260504211503 | 62 | 45 | 1.0 | 2.0 | 0.00 | 0.00 | 0.00 | 71 | 1013.3 |
| 20260504211003 | 62 | 45 | 2.0 | 2.0 | 0.00 | 0.00 | 0.00 | 71 | 1013.2 |
| 20260504210503 | 62 | 45 | 1.0 | 2.0 | 0.00 | 0.00 | 0.00 | 71 | 1013.3 |
| 20260504210003 | 62 | 45 | 0.0 | 2.0 | 0.00 | 0.00 | 0.00 | 71 | 1013.2 |
| 20260504205503 | 62 | 45 | 0.0 | 2.0 | 0.00 | 0.00 | 0.00 | 71 | 1013.2 |
| 20260504205003 | 62 | 45 | 1.0 | 2.0 | 0.00 | 0.00 | 0.00 | 71 | 1013.1 |
| 20260504204503 | 62 | 45 | 1.0 | 2.0 | 0.00 | 0.00 | 0.00 | 71 | 1013.3 |
| 20260504204003 | 62 | 45 | 0.0 | 2.0 | 0.00 | 0.00 | 0.00 | 70 | 1013.2 |
| 20260504203503 | 62 | 0 | 0.0 | 0.0 | 0.00 | 0.00 | 0.00 | 70 | 1013.3 |
| 20260504203003 | 62 | 0 | 0.0 | 0.0 | 0.00 | 0.00 | 0.00 | 70 | 1013.3 |
| 20260504202503 | 63 | 0 | 0.0 | 0.0 | 0.00 | 0.00 | 0.00 | 70 | 1013.3 |
| 20260504202003 | 63 | 0 | 0.0 | 0.0 | 0.00 | 0.00 | 0.00 | 70 | 1013.2 |
| 20260504201503 | 63 | 0 | 0.0 | 0.0 | 0.00 | 0.00 | 0.00 | 70 | 1013.2 |
| 20260504201003 | 63 | 0 | 0.0 | 0.0 | 0.00 | 0.00 | 0.00 | 70 | 1013.2 |
| 20260504200503 | 63 | 0 | 0.0 | 0.0 | 0.00 | 0.00 | 0.00 | 69 | 1013.2 |
| 20260504200003 | 63 | 0 | 0.0 | 0.0 | 0.00 | 0.00 | 0.00 | 69 | 1013.1 |
| 20260504195503 | 63 | 0 | 0.0 | 0.0 | 0.00 | 0.00 | 0.00 | 69 | 1013.1 |
| 20260504195003 | 63 | 0 | 0.0 | 0.0 | 0.00 | 0.00 | 0.00 | 69 | 1013.0 |
| 20260504194503 | 64 | 0 | 0.0 | 0.0 | 0.00 | 0.00 | 0.00 | 69 | 1012.9 |
| 20260504194003 | 63 | 0 | 0.0 | 0.0 | 0.00 | 0.00 | 0.00 | 69 | 1012.9 |
| 20260504193503 | 64 | 0 | 0.0 | 0.0 | 0.00 | 0.00 | 0.00 | 69 | 1013.0 |
| 20260504193003 | 64 | 0 | 0.0 | 0.0 | 0.00 | 0.00 | 0.00 | 69 | 1013.0 |
| 20260504192717 | 64 | 0 | 0.0 | 0.0 | 0.00 | 0.00 | 0.00 | 69 | 1013.0 |
| 20260504192003 | 64 | 0 | 0.0 | 0.0 | 0.00 | 0.00 | 0.00 | 69 | 1012.9 |
| 20260504191503 | 64 | 0 | 0.0 | 0.0 | 0.00 | 0.00 | 0.00 | 69 | 1012.9 |
| 20260504191003 | 64 | 0 | 0.0 | 0.0 | 0.00 | 0.00 | 0.00 | 69 | 1012.8 |
| 20260504190503 | 64 | 0 | 0.0 | 0.0 | 0.00 | 0.00 | 0.00 | 69 | 1012.7 |
| 20260504190003 | 64 | 0 | 0.0 | 0.0 | 0.00 | 0.00 | 0.00 | 69 | 1012.7 |
| 20260504185503 | 65 | 0 | 0.0 | 0.0 | 0.00 | 0.00 | 0.00 | 68 | 1012.6 |
| 20260504185003 | 65 | 0 | 0.0 | 0.0 | 0.00 | 0.00 | 0.00 | 68 | 1012.8 |
| 20260504184503 | 65 | 0 | 0.0 | 0.0 | 0.00 | 0.00 | 0.00 | 68 | 1012.8 |
| 20260504184004 | 65 | 0 | 0.0 | 0.0 | 0.00 | 0.00 | 0.00 | 68 | 1012.7 |
| 20260504183503 | 65 | 0 | 0.0 | 0.0 | 0.00 | 0.00 | 0.00 | 68 | 1012.4 |
| 20260504183003 | 65 | 0 | 0.0 | 0.0 | 0.00 | 0.00 | 0.00 | 68 | 1012.5 |
| 20260504182503 | 65 | 0 | 0.0 | 0.0 | 0.00 | 0.00 | 0.00 | 68 | 1012.5 |
| 20260504182003 | 65 | 0 | 0.0 | 0.0 | 0.00 | 0.00 | 0.00 | 68 | 1012.5 |
| 20260504181503 | 65 | 45 | 0.0 | 1.0 | 0.00 | 0.00 | 0.00 | 68 | 1012.4 |
| 20260504181003 | 65 | 45 | 0.0 | 1.0 | 0.00 | 0.00 | 0.00 | 68 | 1012.4 |
| 20260504180503 | 65 | 45 | 0.0 | 2.0 | 0.00 | 0.00 | 0.00 | 68 | 1012.3 |
| 20260504180003 | 65 | 45 | 0.0 | 2.0 | 0.00 | 0.00 | 0.00 | 68 | 1012.3 |
| 20260504175503 | 65 | 45 | 0.0 | 2.0 | 0.00 | 0.00 | 0.00 | 68 | 1012.2 |
| 20260504175003 | 66 | 45 | 1.0 | 4.0 | 0.00 | 0.00 | 0.00 | 68 | 1012.1 |
| 20260504174503 | 66 | 45 | 2.0 | 4.0 | 0.00 | 0.00 | 0.00 | 68 | 1012.1 |
| 20260504174003 | 66 | 45 | 1.0 | 3.0 | 0.00 | 0.00 | 0.00 | 68 | 1012.1 |
| 20260504173503 | 66 | 45 | 0.0 | 2.0 | 0.00 | 0.00 | 0.00 | 68 | 1012.3 |
| 20260504173003 | 66 | 0 | 0.0 | 0.0 | 0.00 | 0.00 | 0.00 | 68 | 1012.2 |
| 20260504172503 | 66 | 0 | 0.0 | 0.0 | 0.00 | 0.00 | 0.00 | 68 | 1012.2 |
| 20260504172003 | 66 | 130 | 0.0 | 2.0 | 0.00 | 0.00 | 0.00 | 68 | 1012.2 |
| 20260504171503 | 66 | 112 | 0.0 | 1.0 | 0.00 | 0.00 | 0.00 | 68 | 1012.2 |
| 20260504171003 | 66 | 155 | 1.0 | 3.0 | 0.00 | 0.00 | 0.00 | 67 | 1012.1 |
| 20260504170503 | 66 | 131 | 0.0 | 2.0 | 0.00 | 0.00 | 0.00 | 67 | 1012.0 |
| 20260504151003 | 70 | 171 | 3.0 | 7.0 | 0.00 | 0.00 | 0.00 | 64 | 1012.1 |
| 20260504150503 | 70 | 171 | 4.0 | 6.0 | 0.00 | 0.00 | 0.00 | 63 | 1012.1 |
| 20260504141003 | 71 | 172 | 4.0 | 10.0 | 0.00 | 0.00 | 0.00 | 57 | 1012.2 |
| 20260504140503 | 71 | 170 | 4.0 | 10.0 | 0.00 | 0.00 | 0.00 | 57 | 1012.2 |
| 20260504130503 | 72 | 166 | 4.0 | 8.0 | 0.00 | 0.00 | 0.00 | 49 | 1012.4 |